Location: Conflandey
(47.7287°N, 6.0456°E)
Time: 22:13:11
(UTC+00:00)

USA 215 - Pass Details

Date: 24 October 2021
Orbit: 1099 x 1109 km, 123.0° (Epoch: 20 November)

Event Time Altitude Azimuth Distance (km) Brightness Sun altitude
Exits shadow 17:21:14 - 54° (NE) 3,285 5.2 -9.1°
Reaches altitude 10° 17:22:04 10° 53° (NE) 2,965 5.0 -9.2°
Maximum altitude 17:28:37 78° 329° (NNW) 1,131 3.4 -10.3°
Drops below altitude 10° 17:35:09 10° 244° (WSW) 2,961 6.8 -11.4°
Sets 17:37:37 0° 243° (WSW) 3,919 7.6 -11.8°
